Location: Casteau
(50.5142°N, 4.0161°E)
Time: 20:51:54
(UTC+00:00)

Tiros 1 - Pass Details

Date: 01 August 2021
Orbit: 630 x 663 km, 48.4° (Epoch: 28 September)

Event Time Altitude Azimuth Distance (km) Brightness Sun altitude
Rises 19:44:21 0° 256° (WSW) 2,979 11.3 -3.0°
Reaches altitude 10° 19:46:42 10° 254° (WSW) 2,063 10.4 -3.4°
Maximum altitude 19:51:26 66° 173° (S) 711 7.2 -4.0°
Drops below altitude 10° 19:56:06 10° 91° (E) 2,044 9.2 -4.6°
Sets 19:58:26 0° 89° (E) 2,949 10.0 -4.9°
